Wind_Speed
36 35 34 33 32 30 27 26 25 25 24 22 20 19 18 18 17 16 14 13 12 12 12 12 11 10 9 8 8 8 8 7 7 6 5 5 4 4 4 5 5 5
36 35 34 33 33 32 30 27 25 25 25 24 20 17 17 17 18 18 16 15 14 13 13 13 12 12 11 10 9 8 8 9 8 7 6 6 5 4 4 4 4 4
36 35 35 35 34 34 32 28 27 25 24 24 22 19 17 18 19 19 18 17 15 14 14 14 13 13 12 11 10 9 9 9 9 8 8 7 6 5 5 5 5 4
37 36 36 35 33 33 32 29 28 27 24 22 22 21 19 18 19 19 19 18 17 16 15 15 15 14 14 13 12 11 10 9 10 10 10 9 8 7 6 7 7 6
38 36 35 34 32 32 32 31 29 28 26 22 21 21 21 20 21 20 20 20 19 18 17 16 16 16 15 15 13 13 12 10 10 11 11 11 10 9 8 8 8 8
38 37 35 33 33 32 32 32 30 28 27 24 22 21 21 23 23 21 20 22 21 20 19 17 17 17 16 16 15 15 14 12 11 11 11 11 11 10 9 10 10 9
39 38 36 34 33 33 33 32 31 30 28 26 23 23 22 23 24 23 22 22 22 21 21 19 19 19 18 18 17 16 16 14 13 13 12 12 12 12 11 11 12 11
40 39 37 35 33 33 33 32 31 31 30 28 25 24 24 24 24 24 23 23 22 22 22 21 21 21 20 19 18 18 17 15 15 15 15 13 13 13 13 13 13 12
41 40 38 37 35 34 33 32 31 31 31 30 27 25 25 25 24 24 25 25 24 23 24 23 23 23 22 21 20 20 18 17 16 16 17 16 15 15 15 14 15 14
43 41 39 38 36 35 34 32 30 30 31 31 29 26 25 27 26 25 26 27 27 26 26 26 25 25 25 24 22 21 20 19 18 17 17 17 17 16 15 15 15 15
45 43 41 40 37 34 33 32 30 29 30 31 30 27 25 27 28 28 27 29 29 28 28 28 27 27 27 26 25 23 23 22 20 20 20 19 19 17 16 16 16 16
46 44 43 41 39 35 32 32 31 29 29 30 30 29 27 26 29 30 30 31 30 30 29 29 29 28 28 27 26 25 24 24 23 22 21 22 21 20 18 18 18 17
46 46 44 41 39 37 33 31 32 30 29 28 29 29 28 27 27 30 32 32 31 30 30 30 29 29 29 28 27 26 25 25 24 23 22 22 22 21 20 19 19 19
46 46 44 40 39 38 34 32 32 31 30 29 28 29 29 28 27 28 31 32 32 31 31 30 30 30 29 29 28 27 26 26 26 24 22 22 22 22 21 20 19 19
46 45 45 42 39 38 36 34 32 32 31 30 29 29 30 29 28 27 28 31 31 31 31 30 30 31 31 30 30 29 27 27 27 26 24 22 21 21 20 20 19 19
45 45 45 44 41 39 39 36 33 32 32 31 31 30 30 30 30 28 27 29 31 32 32 31 31 32 32 31 30 30 29 28 28 28 27 25 24 23 22 20 19 19
45 46 45 45 43 41 41 39 35 32 32 33 32 31 31 31 31 30 29 28 29 31 32 33 33 33 33 32 31 30 29 28 29 29 29 29 28 27 26 24 21 20
45 46 46 46 45 44 44 43 38 34 33 33 33 32 32 32 31 32 31 29 28 28 29 32 34 35 35 34 33 30 29 29 28 28 29 30 29 29 28 27 25 22
44 46 47 47 47 46 46 44 42 38 35 34 33 33 33 33 32 32 33 32 29 28 28 29 31 34 35 35 33 31 29 28 28 28 28 28 29 29 28 28 28 27
42 43 46 47 46 47 47 45 44 42 38 34 33 33 34 36 34 33 33 34 32 30 28 28 28 30 33 35 34 31 29 27 27 27 27 26 26 27 27 28 29 29
41 38 42 46 46 46 47 46 45 45 42 36 33 33 35 38 37 34 34 36 35 33 30 28 28 28 30 32 32 31 29 27 27 27 27 26 26 27 28 29 30 30
43 38 40 45 46 45 47 47 45 45 44 41 35 31 32 36 38 36 35 36 37 36 32 29 28 29 31 32 32 31 28 27 27 29 29 29 29 30 31 31 31 31
45 42 42 44 45 45 46 46 45 44 44 43 39 33 30 33 36 37 36 36 36 37 36 33 29 30 32 34 34 33 29 27 28 30 31 32 32 31 32 32 32 31
45 45 45 45 44 45 46 46 46 44 44 44 43 38 32 29 32 34 35 35 36 36 37 37 33 32 34 35 35 34 31 29 29 31 32 32 33 33 33 33 32 32
43 44 45 44 44 45 45 45 46 45 44 43 43 41 36 30 29 30 31 33 34 33 34 36 35 33 34 34 34 34 32 30 30 31 32 33 33 34 34 34 33 33
41 43 44 43 43 43 44 44 44 43 43 43 42 41 38 33 29 27 28 29 30 30 30 33 34 34 34 33 33 33 32 31 30 31 32 33 34 34 34 34 34 34
Wind_Direction
225 227 228 227 228 226 223 226 230 233 232 225 223 227 227 225 225 219 212 216 216 211 208 205 206 208 205 205 200 200 204 190 184 194 179 170 179 176 185 192 190 185
223 224 226 226 227 227 224 223 225 228 230 226 217 217 221 220 224 225 218 215 215 212 210 208 206 209 208 207 205 205 209 199 191 201 200 187 187 184 189 201 203 198
222 222 224 225 226 227 226 222 223 225 227 226 218 210 214 217 220 224 222 219 218 215 212 211 209 209 211 210 209 209 212 208 197 203 213 204 196 194 195 204 214 223
221 222 223 223 222 225 225 222 223 224 221 221 218 211 209 213 217 221 221 221 221 218 215 214 211 211 212 210 211 213 215 215 208 204 212 213 205 202 203 207 211 219
221 221 220 218 216 220 224 222 222 224 221 216 214 212 208 210 218 221 219 218 219 219 219 217 213 213 214 211 209 214 216 218 220 216 215 216 212 210 215 222 219 214
220 219 217 216 215 216 221 222 220 221 222 216 211 210 208 212 221 221 218 218 216 217 218 218 217 215 216 215 212 214 217 216 223 231 228 223 220 215 217 229 232 226
218 217 216 216 215 215 218 221 221 220 221 218 211 210 208 212 221 221 220 222 218 216 216 216 220 220 217 218 216 215 219 218 217 227 231 228 228 225 221 228 235 235
217 217 217 216 215 215 216 218 220 221 221 218 213 211 210 213 220 221 220 222 220 218 218 216 218 223 221 221 221 219 222 223 221 226 231 231 233 235 232 232 237 239
216 217 218 217 215 216 216 215 217 220 220 219 214 212 214 215 218 220 220 222 221 220 224 221 220 224 224 223 224 223 222 223 224 230 235 235 237 242 242 241 243 244
216 217 218 218 215 214 214 212 212 216 219 221 216 211 214 218 217 217 220 224 223 222 227 228 225 227 228 227 227 227 225 225 226 230 236 239 241 243 246 246 244 244
216 216 216 217 215 211 210 209 206 210 216 220 219 211 209 217 219 216 218 224 225 224 227 230 230 230 231 230 230 230 230 229 230 233 237 242 244 242 242 243 244 243
214 214 214 216 214 207 204 205 203 204 209 215 217 212 206 212 219 218 218 224 226 225 226 230 231 231 232 232 230 230 232 232 233 235 239 244 247 245 242 242 245 246
213 214 213 211 210 205 201 201 202 202 204 208 212 212 206 206 214 218 220 224 227 226 226 229 231 232 233 234 231 228 232 235 235 234 237 243 247 247 246 244 245 248
213 215 212 207 206 205 200 199 201 201 202 205 207 209 207 204 208 215 219 224 227 228 227 228 230 232 232 235 235 231 231 236 238 235 233 237 243 246 246 242 240 242
212 213 213 208 205 204 200 198 200 201 201 203 205 207 206 205 206 210 217 222 225 228 228 227 229 232 233 233 235 235 233 235 241 242 236 231 233 240 244 242 240 238
211 212 212 210 206 205 204 201 199 200 201 202 205 206 205 206 206 207 212 219 223 226 228 228 229 233 236 235 235 236 236 235 239 245 245 238 234 237 240 239 239 239
209 211 212 211 207 207 207 205 200 199 202 203 204 207 207 207 207 206 209 214 219 223 227 228 230 233 237 239 238 237 239 239 239 243 247 246 243 243 244 242 239 238
208 210 213 213 211 209 211 211 205 200 202 203 203 206 207 206 207 207 208 210 214 218 221 226 231 235 238 241 241 240 240 240 240 240 243 247 248 247 248 248 246 241
208 210 212 213 213 212 213 214 209 203 202 203 203 204 207 208 209 209 209 209 211 215 217 222 229 234 237 240 243 242 241 239 238 238 239 243 246 248 249 250 251 250
208 209 212 213 213 213 214 214 213 209 204 203 203 204 208 212 213 212 213 214 213 214 216 219 224 231 237 241 242 242 241 238 235 235 235 237 239 242 245 248 251 253
209 208 211 214 213 213 214 215 216 214 209 205 204 206 211 218 219 216 217 220 219 217 218 219 222 227 234 240 242 241 240 238 235 232 232 233 236 239 242 246 249 251
210 208 210 214 214 212 214 215 216 216 214 211 208 207 212 220 223 221 220 223 225 223 221 221 223 227 231 237 243 242 238 236 234 232 231 232 235 240 244 246 249 250
212 212 213 214 214 213 213 215 216 216 216 215 212 209 210 218 224 224 223 225 227 227 226 225 225 229 234 238 243 244 241 236 233 233 233 233 235 239 243 246 249 251
213 214 215 215 215 214 214 214 216 216 217 218 217 215 212 214 221 224 224 226 228 230 231 231 229 232 238 242 244 246 244 239 236 234 234 235 236 238 240 244 248 251
212 214 216 216 216 216 215 215 216 217 218 219 221 220 216 214 218 220 222 225 228 229 232 236 235 234 239 244 245 247 246 242 238 237 236 236 237 239 241 244 247 251
209 213 216 217 217 216 215 215 216 217 219 220 222 222 220 217 217 218 220 224 226 227 229 235 238 237 238 242 244 245 246 244 241 239 238 238 239 240 242 245 247 249
Height
1548 1550 1553 1555 1558 1561 1563 1564 1566 1568 1570 1571 1573 1575 1576 1577 1579 1580 1581 1582 1583 1584 1585 1586 1587 1588 1589 1590 1591 1592 1592 1593 1594 1594 1595 1595 1595 1596 1596 1597 1597 1598
1545 1547 1550 1552 1555 1557 1560 1562 1564 1565 1567 1569 1572 1573 1574 1576 1577 1578 1580 1581 1582 1583 1584 1585 1586 1587 1588 1589 1590 1591 1592 1592 1593 1594 1594 1595 1595 1595 1596 1597 1597 1597
1541 1544 1546 1549 1552 1554 1557 1560 1561 1563 1565 1567 1569 1572 1573 1574 1575 1577 1578 1580 1581 1582 1583 1584 1585 1586 1587 1588 1589 1590 1591 1592 1592 1593 1594 1594 1594 1595 1596 1596 1597 1597
1538 1541 1543 1546 1549 1552 1554 1557 1559 1561 1563 1565 1567 1569 1571 1572 1574 1575 1577 1578 1579 1581 1582 1583 1584 1585 1586 1587 1588 1589 1590 1591 1591 1592 1593 1593 1594 1594 1595 1596 1596 1597
1534 1537 1540 1543 1546 1549 1551 1554 1556 1558 1561 1563 1565 1567 1569 1570 1572 1573 1575 1576 1577 1579 1580 1581 1582 1584 1585 1586 1587 1588 1589 1590 1590 1591 1592 1592 1593 1594 1594 1595 1595 1596
1531 1534 1537 1540 1543 1546 1548 1551 1554 1556 1558 1561 1562 1565 1566 1567 1569 1571 1573 1574 1575 1577 1579 1580 1581 1582 1583 1584 1586 1587 1587 1589 1590 1590 1591 1592 1592 1593 1594 1594 1594 1595
1527 1530 1534 1537 1540 1543 1545 1548 1551 1553 1556 1558 1560 1562 1564 1565 1567 1569 1570 1572 1573 1575 1577 1578 1579 1580 1582 1583 1584 1585 1586 1587 1588 1589 1589 1590 1591 1592 1593 1593 1593 1594
1524 1527 1530 1534 1537 1540 1542 1545 1548 1550 1553 1555 1557 1559 1561 1563 1564 1566 1568 1570 1571 1573 1574 1576 1577 1578 1580 1581 1582 1583 1584 1586 1587 1587 1588 1589 1590 1590 1591 1592 1592 1593
1520 1523 1527 1530 1533 1536 1539 1542 1545 1547 1550 1552 1554 1557 1558 1560 1562 1564 1566 1567 1569 1570 1572 1573 1575 1576 1578 1579 1580 1581 1582 1584 1585 1586 1586 1587 1588 1589 1590 1590 1591 1591
1516 1519 1523 1526 1530 1533 1536 1539 1542 1544 1546 1548 1551 1554 1556 1557 1559 1561 1563 1564 1566 1568 1569 1571 1572 1574 1575 1576 1578 1579 1580 1582 1583 1584 1585 1586 1586 1587 1588 1589 1589 1590
1512 1515 1519 1522 1526 1529 1532 1536 1539 1541 1543 1545 1548 1551 1553 1554 1556 1558 1560 1561 1563 1565 1566 1568 1569 1571 1573 1574 1576 1577 1578 1580 1581 1582 1583 1584 1585 1585 1586 1587 1588 1588
1507 1511 1514 1518 1521 1526 1529 1533 1536 1539 1540 1542 1544 1548 1550 1552 1553 1555 1557 1558 1560 1562 1563 1565 1566 1568 1570 1572 1573 1575 1576 1577 1579 1580 1581 1582 1582 1583 1584 1585 1586 1586
1502 1506 1510 1514 1517 1522 1526 1529 1532 1536 1538 1539 1541 1544 1547 1549 1550 1552 1554 1555 1557 1559 1560 1562 1563 1565 1567 1569 1571 1572 1573 1575 1576 1577 1578 1579 1580 1581 1582 1583 1584 1584
1498 1502 1506 1511 1514 1518 1522 1526 1529 1532 1535 1537 1539 1541 1543 1546 1548 1549 1551 1552 1554 1556 1558 1559 1560 1562 1564 1565 1567 1569 1571 1572 1573 1575 1576 1577 1578 1579 1580 1581 1582 1583
1495 1499 1503 1508 1511 1515 1519 1522 1525 1528 1531 1534 1535 1537 1540 1543 1545 1547 1548 1550 1551 1553 1555 1556 1557 1559 1560 1562 1564 1566 1568 1569 1570 1572 1573 1575 1576 1577 1578 1579 1580 1581
1492 1496 1500 1504 1508 1511 1515 1519 1522 1525 1528 1530 1532 1534 1537 1539 1542 1545 1546 1547 1548 1550 1551 1553 1554 1555 1556 1558 1561 1563 1565 1567 1567 1568 1570 1572 1573 1574 1575 1577 1578 1579
1489 1493 1496 1500 1504 1507 1511 1515 1519 1522 1525 1527 1529 1531 1534 1536 1539 1541 1543 1544 1545 1546 1548 1549 1550 1551 1552 1555 1557 1560 1562 1564 1565 1566 1567 1568 1570 1571 1572 1574 1575 1576
1486 1489 1492 1496 1500 1504 1507 1511 1515 1519 1521 1524 1526 1527 1530 1532 1535 1537 1539 1541 1543 1544 1545 1546 1547 1548 1549 1551 1554 1556 1559 1560 1562 1563 1564 1565 1566 1567 1569 1570 1572 1573
1484 1486 1489 1493 1496 1500 1503 1507 1511 1515 1518 1520 1523 1524 1526 1529 1531 1533 1535 1537 1539 1541 1542 1543 1544 1545 1546 1547 1550 1553 1555 1557 1559 1560 1561 1562 1563 1564 1566 1567 1568 1569
1481 1484 1486 1489 1493 1497 1500 1503 1507 1510 1514 1517 1520 1521 1523 1525 1527 1530 1531 1533 1535 1537 1539 1540 1541 1542 1542 1544 1547 1549 1552 1554 1556 1557 1558 1559 1560 1561 1562 1563 1564 1566
1477 1481 1484 1487 1490 1493 1496 1499 1503 1506 1510 1513 1516 1518 1519 1521 1524 1526 1528 1529 1532 1534 1535 1537 1538 1539 1540 1541 1543 1546 1548 1551 1552 1554 1555 1556 1557 1558 1559 1560 1561 1562
1474 1477 1480 1483 1487 1490 1492 1495 1499 1502 1506 1510 1513 1515 1517 1518 1520 1523 1524 1526 1528 1530 1532 1534 1535 1536 1537 1538 1540 1542 1545 1547 1549 1550 1551 1552 1553 1554 1555 1556 1557 1558
1470 1473 1476 1479 1483 1486 1489 1492 1495 1499 1502 1506 1509 1512 1514 1515 1517 1519 1521 1523 1524 1526 1528 1530 1532 1533 1533 1535 1537 1539 1542 1544 1545 1546 1547 1548 1549 1550 1551 1552 1553 1555
1466 1469 1472 1475 1478 1482 1485 1488 1491 1495 1499 1502 1505 1509 1511 1513 1514 1516 1518 1519 1521 1523 1524 1526 1529 1529 1530 1532 1534 1536 1538 1541 1542 1542 1543 1544 1546 1547 1548 1549 1550 1551
1463 1465 1468 1472 1475 1478 1482 1485 1488 1492 1495 1499 1502 1505 1508 1511 1512 1513 1515 1516 1518 1520 1521 1523 1525 1526 1527 1529 1530 1532 1535 1537 1538 1539 1540 1541 1542 1543 1544 1546 1546 1547
1459 1462 1465 1468 1472 1475 1479 1482 1485 1489 1492 1495 1499 1501 1505 1508 1510 1511 1512 1514 1516 1518 1519 1520 1521 1523 1524 1525 1527 1529 1531 1533 1534 1535 1536 1538 1539 1540 1541 1542 1543 1544